TimeAKDT,TemperatureF,Dew PointF,Humidity,Sea Level PressureIn,VisibilityMPH,Wind Direction,Wind SpeedMPH,Gust SpeedMPH,PrecipitationIn,Events,Conditions,WindDirDegrees,DateUTC
12:53 AM,51.1,50.0,96,29.57,4.0,Calm,Calm,-,0.00,Rain,Light Rain,0,2012-08-27 08:53:00
1:53 AM,51.1,50.0,96,29.57,4.0,Calm,Calm,-,0.01,Rain,Light Rain,0,2012-08-27 09:53:00
2:53 AM,50.0,50.0,100,29.58,4.0,Calm,Calm,-,0.00,Rain,Light Rain,0,2012-08-27 10:53:00
3:53 AM,51.1,50.0,96,29.59,4.0,Calm,Calm,-,0.01,Rain,Light Rain,0,2012-08-27 11:53:00
4:53 AM,50.0,50.0,100,29.60,4.0,SSW,3.5,-,0.01,Rain,Light Rain,200,2012-08-27 12:53:00
5:53 AM,50.0,50.0,100,29.61,3.0,SSW,4.6,-,0.01,,Overcast,200,2012-08-27 13:53:00
6:20 AM,51.8,50.0,94,29.60,3.0,WSW,6.9,-,0.01,Rain,Light Rain,250,2012-08-27 14:20:00
6:53 AM,51.1,48.0,89,29.63,7.0,West,6.9,-,0.01,,Overcast,280,2012-08-27 14:53:00
7:53 AM,50.0,46.9,89,29.66,7.0,WSW,6.9,-,N/A,,Mostly Cloudy,240,2012-08-27 15:53:00
8:53 AM,52.0,46.9,83,29.66,7.0,WSW,8.1,-,N/A,,Mostly Cloudy,250,2012-08-27 16:53:00
9:53 AM,52.0,46.9,83,29.68,10.0,WSW,10.4,16.1,N/A,,Mostly Cloudy,250,2012-08-27 17:53:00
10:53 AM,53.1,48.0,83,29.69,10.0,West,10.4,-,N/A,,Mostly Cloudy,260,2012-08-27 18:53:00
11:53 AM,54.0,45.0,72,29.72,10.0,West,13.8,19.6,N/A,,Mostly Cloudy,260,2012-08-27 19:53:00
12:53 PM,51.1,44.1,77,29.75,10.0,West,11.5,19.6,N/A,,Mostly Cloudy,270,2012-08-27 20:53:00
1:31 PM,51.8,44.6,76,29.74,10.0,WSW,19.6,24.2,N/A,,Mostly Cloudy,250,2012-08-27 21:31:00
1:53 PM,51.1,43.0,74,29.76,10.0,West,11.5,19.6,N/A,,Mostly Cloudy,260,2012-08-27 21:53:00
2:53 PM,51.1,42.1,71,29.78,10.0,West,18.4,24.2,N/A,,Mostly Cloudy,260,2012-08-27 22:53:00
3:53 PM,52.0,39.0,61,29.79,10.0,West,24.2,33.4,N/A,,Mostly Cloudy,280,2012-08-27 23:53:00
4:53 PM,51.1,39.9,66,29.83,10.0,West,12.7,25.3,0.00,Rain,Light Rain,280,2012-08-28 00:53:00
5:53 PM,51.1,41.0,68,29.85,10.0,WSW,15.0,24.2,0.00,,Mostly Cloudy,250,2012-08-28 01:53:00
6:53 PM,52.0,39.0,61,29.87,10.0,West,13.8,26.5,N/A,,Mostly Cloudy,260,2012-08-28 02:53:00
7:53 PM,51.1,39.0,63,29.89,10.0,West,12.7,20.7,N/A,,Mostly Cloudy,260,2012-08-28 03:53:00
8:53 PM,48.9,39.0,69,29.91,10.0,WSW,11.5,-,N/A,,Mostly Cloudy,250,2012-08-28 04:53:00
9:53 PM,48.0,39.0,71,29.93,10.0,WSW,11.5,17.3,N/A,,Mostly Cloudy,240,2012-08-28 05:53:00
10:53 PM,46.9,39.9,77,29.95,10.0,WSW,9.2,-,0.00,,Mostly Cloudy,240,2012-08-28 06:53:00
11:53 PM,46.0,39.9,79,29.98,7.0,West,10.4,-,0.02,Rain,Rain,270,2012-08-28 07:53:00